This demonstration page uses our WeatherBlox Daily Observations layout. Learn more.

Left ArrowRight Arrow

44.8408, -93.29828

Hourly Observations for September 2, 2019

Temp ( °F °C ) Dew Point ( °F °C ) Humidity (%) Winds ( mph kmh ) Pressure ( in mb ) Visibility ( mi km ) Precip ( " mm )
12:53 am 00:53 Cloudy 68 20 62 16.7 81 81 Calm 30.07 1018 10 16 0.00 0.00
1:53 am 01:53 Cloudy 68 20 62 16.7 81 81 ENE 3 6 30.07 1018 10 16 0.00 0.00
2:53 am 02:53 Cloudy 67 19.4 62 16.7 84 84 NE 3 6 30.06 1018 10 16 0.00 0.00
3:00 am 03:00 Mostly Cloudy 67 19.4 62 16.7 84 84 Calm 30.05 1018 10 16 0.00 0.00
3:53 am 03:53 Cloudy 67 19.4 62 16.7 84 84 Calm 30.06 1018 10 16 0.00 0.00
4:53 am 04:53 Cloudy 67 19.4 62 16.7 84 84 N 3 6 30.08 1019 10 16 0.00 0.00
5:53 am 05:53 Mostly Cloudy 65 18.3 61 16.1 87 87 VRB 6 9 30.09 1019 10 16 0.00 0.00
6:53 am 06:53 Partly Cloudy 64 17.8 60 15.6 87 87 VRB 7 11 30.10 1019 10 16 0.00 0.00
7:35 am 07:35 Partly Cloudy 64 17.8 60 15.6 87 87 VRB 3 6 30.10 1019 10 16 0.00 0.00
7:44 am 07:44 Mostly Cloudy 64 17.8 60 15.6 87 87 Calm 30.10 1019 10 16 0.00 0.00
7:53 am 07:53 Cloudy 64 17.8 60 15.6 87 87 ENE 5 7 30.11 1020 10 16 0.00 0.00
8:53 am 08:53 Cloudy 65 18.3 60 15.6 84 84 NNE 8 13 30.11 1020 10 16 0.00 0.00
9:07 am 09:07 Mostly Cloudy 66 18.9 60 15.6 81 81 VRB 5 7 30.10 1019 10 16 0.00 0.00
9:53 am 09:53 Partly Cloudy 67 19.4 60 15.6 79 79 ENE 7 11 30.11 1020 10 16 0.00 0.00
10:53 am 10:53 Partly Cloudy 70 21.1 61 16.1 73 73 E 9 15 30.11 1020 10 16 0.00 0.00
11:53 am 11:53 Partly Cloudy 70 21.1 61 16.1 73 73 E 7 11 30.10 1019 10 16 0.00 0.00
12:53 pm 12:53 Mostly Sunny 71 21.7 61 16.1 71 71 E 8 13 30.09 1019 10 16 0.00 0.00
1:53 pm 13:53 Mostly Sunny 72 22.2 61 16.1 68 68 VRB 7 11 30.06 1018 10 16 0.00 0.00
2:53 pm 14:53 Mostly Sunny 74 23.3 60 15.6 62 62 E 6 9 30.03 1017 10 16 0.00 0.00
3:53 pm 15:53 Mostly Cloudy 74 23.3 61 16.1 64 64 E 7 11 30.01 1016 10 16 0.00 0.00
4:53 pm 16:53 Mostly Cloudy 75 23.9 61 16.1 62 62 SSE 10 17 29.98 1015 10 16 0.00 0.00
5:53 pm 17:53 Mostly Cloudy 75 23.9 62 16.7 64 64 E 13 20 29.96 1014 10 16 0.00 0.00
6:53 pm 18:53 Cloudy 75 23.9 62 16.7 64 64 ESE 14 22 29.92 1013 10 16 0.00 0.00
7:53 pm 19:53 Cloudy 74 23.3 63 17.2 69 69 SE 13 20 29.89 1012 10 16 0.00 0.00
8:53 pm 20:53 Cloudy 74 23.3 64 17.8 71 71 SE 14 22 29.83 1010 10 16 0.00 0.00
9:13 pm 21:13 Cloudy 73 22.8 64 17.8 74 74 SE 12 19 29.80 1009 10 16 0.00 0.00
9:53 pm 21:53 Cloudy 73 22.8 65 18.3 76 76 SE 16 26 29.79 1009 10 16 0.00 0.00
10:01 pm 22:01 Cloudy 73 22.8 65 18.3 76 76 SE 13 20 29.78 1008 10 16 0.00 0.00
10:12 pm 22:12 Cloudy with Nearby Thunderstorms 73 22.8 65 18.3 76 76 SSE 10 17 29.80 1009 10 16 0.00 0.00
10:19 pm 22:19 Cloudy with Thunderstorms 73 22.8 66 18.9 79 79 S 7 11 29.80 1009 10 16 0.00 0.00
10:35 pm 22:35 Cloudy with Nearby Thunderstorms 73 22.8 67 19.4 81 81 NW 14 22 29.87 1011 2 3 0.02 0.51
10:41 pm 22:41 Cloudy with Strong Thunderstorms 71 21.7 68 20 90 90 N 10 17 29.85 1011 1 2 0.17 4.32
10:44 pm 22:44 Cloudy with Strong Thunderstorms 71 21.7 68 20 90 90 N 16 26 29.86 1011 1 2 0.24 6.10
10:53 pm 22:53 Cloudy with Thunderstorms 67 19.4 63 17.2 87 87 ENE 9 15 29.85 1011 4 6 0.28 7.11
10:59 pm 22:59 Cloudy with Thunderstorms 67 19.4 64 17.8 91 91 ESE 10 17 29.83 1010 4 6 0.01 0.25
11:14 pm 23:14 Cloudy with Light Rain 68 20 65 18.3 90 90 ENE 8 13 29.81 1009 10 16 0.02 0.51
11:53 pm 23:53 Cloudy 66 18.9 63 17.2 90 90 NNE 7 11 29.83 1010 10 16 0.02 0.51

Powered by AerisWeather